Location: Grambois
(43.7619°N, 5.5873°E)
Time: 06:52:39
(UTC+00:00)

STARLINK-24 - Pass Details

Date: 07 June 2020
Orbit: 526 x 527 km, 53.0° (Epoch: 07 July)

Event Time Altitude Azimuth Distance (km) Brightness Sun altitude
Exits shadow 03:04:21 - 248° (WSW) 1,827 5.7 -8.2°
Reaches altitude 10° 03:04:30 10° 248° (WSW) 1,764 5.6 -8.2°
Maximum altitude 03:08:28 60° 329° (NNW) 605 3.9 -7.6°
Drops below altitude 10° 03:12:27 10° 51° (NE) 1,773 8.0 -7.1°
Sets 03:14:41 0° 55° (NE) 2,665 9.7 -6.8°
